Location: Hohenfelde
(53.8441°N, 9.6220°E)
Time: 12:07:36
(UTC+00:00)

CZ-4C R/B - Pass Details

Date: 14 July 2020
Orbit: 464 x 636 km, 98.0° (Epoch: 09 August)

Event Time Altitude Azimuth Distance (km) Brightness Sun altitude
Exits shadow 01:11:36 15° 182° (S) 1,480 4.9 -11.3°
Maximum altitude 01:14:37 55° 258° (WSW) 623 3.4 -11.1°
Drops below altitude 10° 01:18:12 10° 337° (NNW) 1,701 6.4 -10.8°
Sets 01:20:16 0° 342° (NNW) 2,567 7.5 -10.7°
